Fort Polk, LA

5:12 AM CST on December 08, 2019 (GMT -0600)
Fort Polk

Weather History for KAQV - August, 2019

Change the Weather History Date:

Friday, August 30, 2019

  Actual Average (WUND) Record (WUND)
Temperature  
Mean Temperature 82 °F -  
Max Temperature 96 °F - - (-1)
Min Temperature 72 °F - - (-1)
Cooling Degree Days 18    
Growing Degree Days 32 (Base 50)    
Moisture  
Dew Point 71 °F    
Average Humidity 73    
Maximum Humidity 94    
Minimum Humidity 44    
Precipitation  
Precipitation 0.00 in - - ()
Sea Level Pressure  
Sea Level Pressure 30.00 in    
Wind  
Wind Speed 1 mph (SSE)    
Max Wind Speed 5 mph    
Max Gust Speed -    
Visibility 9 miles    
Events Rain , Thunderstorm    
Averages and records for this station are not official NWS values.
T = Trace of Precipitation, MM = Missing Value Source: NWS Daily Summary

Daily Weather History Graph

Daily Weather History Graph

Search for Another Location

Airport or City:

Astronomy

Aug. 30, 2019 Rise Set
Actual Time 6:47 AM CDT 7:39 PM CDT
Civil Twilight 6:22 AM CDT 8:04 PM CDT
Nautical Twilight 5:53 AM CDT 8:33 PM CDT
Astronomical Twilight 5:23 AM CDT 9:03 PM CDT
Moon 6:52 AM CDT (8/30) 8:15 PM CDT (8/30)
Length of Visible Light 13h 41m
Length of Day
12h 51m
New Moon, 0% of the Moon is Illuminated
Aug 30
New Moon
Sep 5
First Quarter
Sep 13
Full
Sep 21
Last Quarter
Sep 28
New

Hourly Weather History & Observations

Time (CDT) Temp. Heat Index Dew Point Humidity Pressure Visibility Wind Dir Wind Speed Gust Speed Precip Events Conditions
12:56 AM 75.0 °F - 72.0 °F 90% 30.01 in 10.0 mi Calm Calm - N/A   Clear
1:56 AM 73.9 °F - 72.0 °F 93% 30.00 in 9.0 mi Calm Calm - N/A   Clear
2:56 AM 73.0 °F - 71.1 °F 93% 29.99 in 5.0 mi Calm Calm - N/A   Clear
3:56 AM 73.0 °F - 71.1 °F 93% 29.99 in 7.0 mi Calm Calm - N/A   Clear
4:56 AM 72.0 °F - 70.0 °F 93% 30.01 in 3.0 mi Calm Calm - N/A   Clear
6:56 AM 73.0 °F - 71.1 °F 93% 30.06 in 5.0 mi Calm Calm - N/A   Clear
7:56 AM 75.0 °F - 73.0 °F 94% 30.05 in 6.0 mi Calm Calm - N/A   Clear
8:56 AM 82.0 °F 87.9 °F 73.9 °F 76% 30.04 in 10.0 mi Calm Calm - N/A   Clear
9:56 AM 87.1 °F 93.6 °F 72.0 °F 61% 30.04 in 10.0 mi East 3.5 mph - N/A   Clear
10:56 AM 87.1 °F 93.6 °F 72.0 °F 61% 30.04 in 10.0 mi South 3.5 mph - N/A   Mostly Cloudy
11:56 AM 91.9 °F 97.4 °F 70.0 °F 48% 30.02 in 10.0 mi Calm Calm - N/A   Partly Cloudy
12:56 PM 90.0 °F 94.5 °F 69.1 °F 50% 30.01 in 10.0 mi Calm Calm - N/A   Overcast
1:56 PM 91.9 °F 95.9 °F 68.0 °F 45% 29.99 in 10.0 mi Variable 3.5 mph - N/A   Scattered Clouds
2:56 PM 93.0 °F 97.4 °F 68.0 °F 44% 29.97 in 10.0 mi Calm Calm - N/A   Scattered Clouds
3:45 PM 91.0 °F 95.6 °F 69.1 °F 48% 29.97 in 10.0 mi Calm Calm - N/A Thunderstorm Thunderstorm
3:56 PM 91.0 °F 95.6 °F 69.1 °F 48% 29.95 in 10.0 mi Calm Calm - N/A Thunderstorm Thunderstorm
4:56 PM 84.9 °F 91.4 °F 73.0 °F 67% 29.95 in 9.0 mi Calm Calm - 0.00 in Rain Light Rain
5:18 PM 82.0 °F 87.9 °F 73.9 °F 76% 29.98 in 10.0 mi Calm Calm - 0.00 in Thunderstorm Thunderstorm
5:37 PM 82.0 °F 87.4 °F 73.0 °F 74% 29.97 in 10.0 mi Calm Calm - 0.00 in Rain Light Rain
5:56 PM 84.0 °F 89.6 °F 72.0 °F 67% 29.96 in 10.0 mi Calm Calm - 0.00 in   Mostly Cloudy
6:56 PM 82.9 °F 89.4 °F 73.9 °F 74% 29.97 in 10.0 mi Calm Calm - N/A   Scattered Clouds
7:56 PM 80.1 °F 84.5 °F 73.9 °F 81% 29.98 in 10.0 mi SSW 3.5 mph - N/A   Clear
8:21 PM 80.1 °F 84.2 °F 73.0 °F 79% 30.00 in 10.0 mi Variable 4.6 mph - N/A Thunderstorm Thunderstorm
8:56 PM 78.1 °F - 70.0 °F 76% 29.99 in 10.0 mi Calm Calm - N/A   Partly Cloudy
9:56 PM 75.0 °F - 71.1 °F 87% 29.98 in 10.0 mi Calm Calm - N/A   Clear
10:56 PM 75.0 °F - 70.0 °F 84% 29.98 in 10.0 mi Calm Calm - N/A   Clear